#timestamp,LO_Frequency,Hit 
1504393215.4,286046974.1,N
1504393235.2,286046975.0,N
1504393255.1,286046970.9,N
1504393256.0,286046970.9,N
1504393275.8,286046967.8,N
1504393295.6,286046972.5,N
1504393315.5,286046974.1,N
1504393335.3,286046974.3,N
1504393355.1,286046976.8,N
1504393375.9,286046974.9,N
1504393395.7,286046975.0,N
1504393415.5,286046969.6,N
1504393435.4,286046966.7,P
1504393455.2,286046987.2,N
1504393475.0,286046991.4,N
1504393475.9,286046991.4,N
1504393495.8,286046991.9,N
1504393515.6,286046992.4,N
1504393535.4,286046991.2,N
1504393555.3,286046986.6,N
1504393575.1,286046982.4,N
1504393576.0,286046982.4,N
1504393595.8,286046987.4,N
1504393615.7,286046989.5,N
1504393635.5,286046985.3,N
1504393655.3,286046985.2,N
1504393675.2,286046984.2,N
1504393695.9,286046986.8,N
1504393715.7,286046989.6,N
1504393735.5,286046988.3,N
1504393755.4,286046985.3,N
1504393775.2,286046991.7,N
1504393795.0,286046994.9,N
1504393795.9,286046994.9,N
1504393815.8,286046997.4,N
1504393835.6,286047003.3,N
1504393855.4,286047005.6,N
1504393875.3,286047005.2,N
1504393895.1,286047003.2,N
1504393915.8,286047003.7,N
1504393935.7,286047005.8,N
1504393955.5,286047006.9,N
1504393975.3,286047003.5,N
1504393995.2,286047004.2,N
1504394015.9,286047003.7,N
1504394035.7,286047007.5,N
1504394055.6,286047007.6,N
1504394075.4,286047009.3,N
1504394095.2,286047011.7,N
1504394115.0,286047012.7,N
1504394116.0,286047012.7,N
1504394135.8,286047012.5,N
1504394155.6,286047014.2,N
1504394175.4,286047016.4,N
1504394195.3,286047015.5,N
1504394215.1,286047011.2,N
1504394235.8,286047016.3,N
1504394255.7,286047017.0,N
1504394275.5,286047020.3,N
1504394295.3,286047018.0,N
1504394315.2,286047017.6,N
1504394335.9,286047018.2,N
1504394355.7,286047015.0,N
1504394375.6,286047012.6,N
1504394395.4,286047012.9,N
1504394415.2,286047013.1,N
1504394435.1,286047013.8,N
1504394436.0,286047013.8,N
1504394455.8,286047011.1,N
1504394475.6,286047016.6,P
1504394495.5,286047001.8,N
1504394515.3,286047000.6,N
1504394535.1,286047002.8,N
1504394555.9,286047000.8,N
1504394575.7,286046999.7,N
1504394595.5,286047003.8,N
1504394615.4,286047002.3,N
1504394635.2,286047002.9,N
1504394655.0,286047003.2,N
1504394655.9,286047003.2,N
1504394675.8,286047006.0,N
1504394695.6,286047002.9,N
1504394715.4,286047005.1,N
1504394735.3,286047005.1,N
1504394755.1,286047005.0,N
1504394756.0,286047005.0,N
1504394775.8,286047004.8,N
1504394795.7,286047007.9,N
1504394815.5,286047010.1,N
1504394835.3,286047010.5,N
1504394855.2,286047010.2,N
1504394875.9,286047005.7,N
1504394895.7,286047001.9,N
1504394915.5,286046998.5,N
1504394935.4,286046993.3,N
1504394955.2,286046990.3,N
1504394975.0,286046987.0,N
1504394975.9,286046987.0,N
1504394995.8,286046990.7,N
1504395015.6,286046987.9,N
1504395035.4,286046986.6,N
1504395055.3,286046986.6,N
1504395075.1,286046988.2,N
1504395095.8,286046988.4,N
1504395115.7,286046984.8,N
1504395135.5,286046983.4,N
1504395155.3,286046977.5,N
1504395175.2,286046981.8,N
1504395195.9,286046983.6,N
1504395215.7,286046981.2,N
1504395235.6,286046976.9,N
1504395255.4,286046973.1,N
1504395275.2,286046974.8,N
1504395295.1,286046975.2,N
1504395296.0,286046975.2,N
1504395315.8,286046972.4,N
1504395335.6,286046975.4,N
1504395355.4,286046977.4,N
1504395375.3,286046979.2,N
1504395395.1,286046978.9,N
1504395415.8,286046980.9,N
1504395435.7,286046980.8,N
1504395455.5,286046974.5,P
1504395475.4,286046991.5,N
1504395495.2,286046990.9,N
1504395515.0,286046989.4,N
1504395515.9,286046989.4,N
1504395535.7,286046986.2,N
1504395555.6,286046985.7,N
1504395575.4,286046987.2,N
1504395595.2,286046990.0,N
1504395615.1,286046985.5,P
1504395616.0,286046985.5,P
1504395635.8,286046995.4,P
1504395655.7,286046994.9,N
1504395675.5,286047000.0,N
1504395695.3,286047001.4,N
1504395715.1,286047008.0,N
1504395735.9,286047011.5,N
1504395755.7,286047017.9,N
1504395775.5,286047017.7,N
1504395795.4,286047020.9,N
1504395815.2,286047026.6,N
1504395835.0,286047021.0,N
1504395835.9,286047021.0,N
1504395855.8,286047024.9,N
1504395875.6,286047028.4,N
1504395895.4,286047028.0,N
1504395915.3,286047027.1,N
1504395935.1,286047025.5,N
1504395936.0,286047025.5,N
1504395955.8,286047026.0,N
1504395975.7,286047027.4,N
1504395995.5,286047025.4,N
1504396015.3,286047028.0,N
1504396035.2,286047029.3,N
1504396055.9,286047028.9,N
1504396075.7,286047031.0,N
1504396095.5,286047028.9,N
1504396115.4,286047028.7,N
1504396135.2,286047029.6,N
1504396155.0,286047026.9,N
1504396155.9,286047026.9,N
1504396175.8,286047031.5,P
1504396195.6,286047011.7,N
1504396215.4,286047007.8,N
1504396235.3,286047008.4,N
1504396255.1,286047006.3,N
1504396275.8,286047003.8,N
1504396295.7,286047005.7,N
1504396315.5,286047007.2,N
1504396335.3,286047008.4,N
1504396355.2,286047009.6,N
1504396375.9,286047012.8,N
1504396395.7,286047011.3,N
1504396415.6,286047011.1,N
1504396435.4,286047013.6,N
1504396455.2,286047015.4,N
1504396475.1,286047015.6,N
1504396476.0,286047015.6,N
1504396495.8,286047018.2,N
1504396515.6,286047018.5,N
1504396535.5,286047015.5,N
1504396555.3,286047013.7,N
1504396575.1,286047013.0,N
1504396595.8,286047015.1,N
1504396615.7,286047012.7,N
1504396635.5,286047014.1,N
1504396655.3,286047014.7,N
1504396675.2,286047014.7,N
1504396695.0,286047015.8,N
1504396695.9,286047015.8,N
1504396715.8,286047016.6,P
1504396735.6,286047003.9,N
1504396755.4,286047001.3,N
1504396775.2,286047000.0,N
1504396795.1,286047000.5,N
1504396796.0,286047000.5,N
